TimeEST,TemperatureF,Dew PointF,Humidity,Sea Level PressureIn,VisibilityMPH,Wind Direction,Wind SpeedMPH,Gust SpeedMPH,PrecipitationIn,Events,Conditions,WindDirDegrees,DateUTC
12:53 AM,42.1,36.0,79,30.18,-9999.0,Calm,Calm,-,N/A,,Unknown,0,2012-11-27 05:53:00
1:53 AM,45.0,37.9,76,30.17,-9999.0,Calm,Calm,-,N/A,,Unknown,0,2012-11-27 06:53:00
2:53 AM,46.9,39.0,74,30.17,-9999.0,Calm,Calm,-,N/A,,Unknown,0,2012-11-27 07:53:00
3:53 AM,48.0,39.9,74,30.15,-9999.0,Calm,Calm,-,N/A,,Unknown,0,2012-11-27 08:53:00
4:53 AM,50.0,41.0,71,30.15,-9999.0,Calm,Calm,-,N/A,,Unknown,0,2012-11-27 09:53:00
5:53 AM,48.9,41.0,74,30.15,-9999.0,Calm,Calm,-,N/A,,Unknown,0,2012-11-27 10:53:00
6:53 AM,46.9,42.1,83,30.16,-9999.0,Calm,Calm,-,N/A,,Unknown,0,2012-11-27 11:53:00
7:53 AM,50.0,43.0,77,30.16,-9999.0,Calm,Calm,-,N/A,,Unknown,0,2012-11-27 12:53:00
8:53 AM,54.0,46.0,75,30.18,-9999.0,Calm,Calm,-,N/A,,Unknown,0,2012-11-27 13:53:00
9:53 AM,62.1,53.1,72,30.20,-9999.0,Calm,Calm,-,N/A,,Unknown,0,2012-11-27 14:53:00
10:53 AM,69.1,53.1,57,30.20,-9999.0,WSW,4.6,-,N/A,,Unknown,240,2012-11-27 15:53:00
11:53 AM,72.0,55.0,55,30.17,-9999.0,West,5.8,-,N/A,,Unknown,260,2012-11-27 16:53:00
12:53 PM,71.1,53.1,53,30.14,-9999.0,WSW,8.1,-,N/A,,Unknown,240,2012-11-27 17:53:00
1:53 PM,70.0,55.9,61,30.12,-9999.0,SSW,8.1,-,N/A,,Unknown,210,2012-11-27 18:53:00
2:53 PM,70.0,57.0,63,30.11,-9999.0,WSW,9.2,-,N/A,,Unknown,250,2012-11-27 19:53:00
3:53 PM,69.1,57.0,65,30.11,-9999.0,SW,9.2,-,N/A,,Unknown,220,2012-11-27 20:53:00
4:53 PM,66.9,57.9,73,30.12,-9999.0,WSW,3.5,-,N/A,,Unknown,240,2012-11-27 21:53:00
5:53 PM,64.9,59.0,81,30.13,-9999.0,Calm,Calm,-,N/A,,Unknown,0,2012-11-27 22:53:00
6:53 PM,64.0,57.9,80,30.13,-9999.0,Calm,Calm,-,N/A,,Unknown,0,2012-11-27 23:53:00
7:53 PM,62.1,55.9,80,30.14,-9999.0,North,3.5,-,N/A,,Unknown,360,2012-11-28 00:53:00
8:53 PM,60.1,52.0,75,30.14,-9999.0,Calm,Calm,-,0.01,,Unknown,0,2012-11-28 01:53:00
9:53 PM,59.0,51.1,75,30.17,-9999.0,North,4.6,-,N/A,,Unknown,350,2012-11-28 02:53:00
10:53 PM,57.9,51.1,78,30.18,-9999.0,NNW,5.8,-,N/A,,Unknown,340,2012-11-28 03:53:00
11:53 PM,55.9,52.0,87,30.19,-9999.0,North,5.8,-,N/A,,Unknown,360,2012-11-28 04:53:00